Location: Greenshields
(52.7833°N, 110.7667°W)
Time: 00:12:57
(UTC+00:00)

Envisat - Visible Passes

Search period start: 09 December 2021 00:00
Search period end: 19 December 2021 00:00
Orbit: 764 x 766 km, 98.2° (Epoch: 08 December)

Date Brightness Start Highest point End Pass type
(mag) Time Alt. Az. Time Alt. Az. Time Alt. Az.
09 Dec 5.3 00:25:00 10° SSW 00:29:18 27° W 00:33:38 10° NW visible
09 Dec 6.0 10:49:49 10° ENE 10:51:36 12° E 10:53:25 10° ESE visible
09 Dec 3.2 12:26:31 10° NNE 12:31:37 69° ESE 12:36:40 10° S visible
09 Dec 4.0 14:06:13 10° N 14:10:12 24° WNW 14:14:10 10° WSW visible
09 Dec 4.0 23:47:13 10° S 23:52:10 52° W 23:57:10 10° NNW visible
10 Dec 4.5 11:49:52 10° NNE 11:54:34 36° E 11:59:13 10° SSE visible
10 Dec 3.3 13:28:54 10° N 13:33:40 41° WNW 13:38:24 10° SW visible
11 Dec 5.8 00:51:33 10° SW 00:54:55 18° W 00:58:18 10° NW visible
11 Dec 5.5 11:13:44 10° NE 11:17:19 19° E 11:20:52 10° SE visible
11 Dec 2.8 12:51:49 10° NNE 12:56:56 77° WNW 13:02:00 10° SSW visible
11 Dec 4.4 14:32:06 10° NNW 14:35:11 16° NW 14:38:16 10° W visible
12 Dec 4.9 00:13:04 10° SSW 00:17:38 33° W 00:22:14 10° NNW visible
12 Dec 3.6 12:14:59 10° NNE 12:20:01 56° E 12:25:00 10° S visible
12 Dec 3.8 13:54:29 10° N 13:58:46 28° WNW 14:03:02 10° WSW visible
13 Dec 6.3 01:19:26 10° W 01:20:38 11° W 01:21:49 10° WNW visible
13 Dec 4.8 11:38:28 10° NNE 11:42:54 29° E 11:47:19 10° SSE visible
13 Dec 3.1 13:17:15 10° N 13:22:10 50° WNW 13:27:02 10° SW visible
14 Dec 5.7 00:39:22 10° SW 00:43:12 21° W 00:47:04 10° NW visible
14 Dec 5.7 11:02:36 10° NE 11:05:35 15° E 11:08:35 10° ESE visible
14 Dec 2.9 12:40:15 10° NNE 12:45:23 88° ESE 12:50:28 10° SSW visible
14 Dec 4.3 14:20:15 10° N 14:23:46 19° NW 14:27:18 10° W visible
15 Dec 4.5 00:01:14 10° SSW 00:06:00 40° W 00:10:48 10° NNW visible
15 Dec 4.0 12:03:29 10° NNE 12:08:24 46° E 12:13:17 10° S visible
15 Dec 3.6 13:42:47 10° N 13:47:18 33° WNW 13:51:48 10° SW visible
16 Dec 6.0 01:06:25 10° WSW 01:08:52 13° W 01:11:21 10° NW visible
16 Dec 5.1 11:27:06 10° NE 11:31:14 24° E 11:35:20 10° SE visible
16 Dec 2.9 13:05:37 10° N 13:10:38 60° WNW 13:15:38 10° SSW visible
16 Dec 4.6 14:46:21 10° NNW 14:48:42 13° NW 14:51:03 10° WNW visible
17 Dec 5.4 00:27:19 10° SSW 00:31:31 26° W 00:35:45 10° NW visible
17 Dec 5.9 10:51:42 10° ENE 10:53:51 13° E 10:56:00 10° ESE visible
17 Dec 3.1 12:28:41 10° NNE 12:33:48 73° ESE 12:38:52 10° S visible
17 Dec 4.1 14:08:27 10° N 14:12:21 23° WNW 14:16:14 10° WSW visible
17 Dec 4.1 23:49:27 10° S 23:54:22 49° W 23:59:20 10° NNW visible
18 Dec 4.3 11:52:01 10° NNE 11:56:46 38° E 12:01:29 10° SSE visible
18 Dec 3.4 13:31:06 10° N 13:35:49 39° WNW 13:40:31 10° SW visible
